Location: Bynea
(51.6714°N, 4.1011°W)
Time: 06:24:28
(UTC+00:00)

Daily predictions for brighter satellites

Satellite Brightness Start Highest point End
(mag) Time Altitude Azimuth Time Altitude Azimuth Time Altitude Azimuth
USA 234 3.4 20:20:06 10° ESE 20:26:39 81° NNE 20:33:13 10° WNW
Meteor 1-27 Rocket 4.1 20:23:48 10° N 20:29:38 57° ENE 20:35:29 10° SSE
Meteor 1-10 Rocket 4.3 20:24:34 10° NNW 20:30:15 85° ENE 20:36:01 10° SSE
Cosmos 2360 Rocket 4.4 20:28:01 10° N 20:31:20 15° NNE 20:34:38 10° ENE
Cosmos 1782 4.2 20:27:54 10° NNW 20:31:42 42° W 20:35:30 10° SSW
MetOp-B 4.4 20:27:07 10° SE 20:32:20 55° ENE 20:37:35 10° N
BREEZE-M DEB (TANK) 4.1 20:30:07 10° WNW 20:35:23 23° SW 20:38:05 10° S
ERBS 2.2 20:32:50 10° WSW 20:36:10 89° SSE 20:39:29 10° ENE
Cosmos 1805 Rocket 3.6 20:34:17 10° S 20:38:39 62° E 20:43:04 10° NNE
H-2A R/B 4.4 20:35:02 10° SW 20:39:06 23° W 20:43:07 10° NW
SPOT 5 4.1 20:36:25 10° ESE 20:39:47 23° ENE 20:43:12 10° N
Cosmos 1980 Rocket 2.6 20:35:55 10° NNW 20:41:31 53° NE 20:47:02 10° SE
DMSP B5D2-2 4.3 20:39:34 10° NNE 20:44:48 77° WNW 20:50:02 10° SSW
SPOT 1/Viking Rocket 4.1 20:40:18 10° SE 20:45:15 45° ENE 20:50:14 10° N
SL-4 R/B 3.2 20:44:02 10° S 20:46:56 20° SE 20:49:42 10° E
Genesis I 3.7 20:43:17 10° NW 20:47:06 52° NE 20:50:44 11° ESE
BREEZE-M DEB (TANK) 2.5 20:45:12 10° SW 20:47:40 47° SSE 20:53:10 10° E
ATLAS 5 CENTAUR R/B 3.2 20:44:34 10° NW 20:49:58 47° SW 20:56:10 10° SSE
Cosmos 1140 Rocket 4.1 20:46:27 10° S 20:51:14 37° ESE 20:56:02 10° NE
Cosmos 389 Rocket 3.2 20:50:04 10° NNW 20:53:25 53° W 20:56:48 10° S
Cosmos 2228 Rocket 4.3 20:49:42 10° NNW 20:53:54 42° W 20:58:02 10° SSW
Cosmos 1812 3.1 20:52:42 10° NNW 20:56:32 64° W 21:00:19 10° S
Cosmos 1697 Rocket 2.8 20:51:42 10° NNW 20:57:20 79° WSW 21:02:56 10° SSE
Cosmos 1833 Rocket 2.8 20:54:38 10° S 21:00:07 56° ESE 21:05:38 10° NE
Cosmos 1633 Rocket 3.5 20:56:02 10° SSE 21:00:14 44° E 21:04:27 10° NNE
SPOT 3 Rocket 4.5 20:57:56 10° S 21:02:58 48° W 21:08:00 10° NNW
Cosmos 2251 Rocket 4.4 21:00:47 10° SW 21:05:55 54° WNW 21:11:10 10° NNE
Cosmos 1867 4.4 21:01:46 10° S 21:06:23 29° ESE 21:11:03 10° ENE
CENTAUR R/B 3.9 21:04:45 13° SE 21:07:06 16° ESE 21:10:48 10° ENE
Cosmos 1707 Rocket 3.7 21:03:42 10° NNW 21:08:04 78° W 21:12:24 10° S
Resurs 01 Rocket 2.5 21:06:43 10° S 21:10:59 49° W 21:15:20 10° NNW
FALCON 9 DEB 4.4 21:10:01 10° SSW 21:12:43 21° SE 21:15:21 10° E
Landsat 7 3.8 21:08:59 10° SSE 21:13:42 87° ENE 21:18:30 10° NNW
Cosmos 1441 Rocket 3.6 21:11:01 10° SSW 21:14:47 65° WNW 21:18:33 10° N
Cosmos 192 4.4 21:14:13 10° NNW 21:19:09 73° ENE 21:22:57 17° SSE
ATLAS 5 CENTAUR R/B 3.0 21:17:21 10° NNW 21:19:19 25° NNE 21:22:45 10° E
Cosmos 676 Rocket 4.5 21:15:07 10° S 21:20:05 42° ESE 21:25:06 10° NE
IGS 5A 3.5 21:17:35 11° S 21:21:29 78° WSW 21:25:39 10° NNW
Cosmos 1470 Rocket 4.0 21:19:31 14° SSE 21:22:57 43° E 21:27:07 10° NNE
Cosmos 614 Rocket 4.1 21:18:29 10° SSW 21:23:39 78° WNW 21:28:54 10° NNE
Cosmos 1934 Rocket 4.0 21:18:39 10° S 21:24:59 77° E 21:31:23 10° NNE
GP-B 3.1 21:22:09 10° N 21:26:37 78° E 21:30:41 12° S
SWAS 4.4 21:23:18 10° SSW 21:27:35 70° ESE 21:31:55 10° NE
Cosmos 921 Rocket 3.0 21:27:57 10° NNW 21:32:12 66° ENE 21:34:50 22° SE
NOSS 3-2 (A) 3.9 21:27:12 10° S 21:32:21 35° ESE 21:38:08 10° NE
USA 267 3.2 21:26:07 10° ENE 21:32:42 72° SSE 21:39:13 10° SW
Cosmos 1862 Rocket 3.6 21:30:08 10° NNW 21:34:39 83° W 21:38:11 16° S
NOSS 3-2 (C) 4.3 21:35:51 18° SSE 21:38:31 25° ESE 21:43:37 10° ENE
COSMOS 2406 3.8 21:32:51 10° SW 21:38:34 63° NW 21:44:17 10° NNE
ERS-1 Rocket 2.9 21:36:08 18° SSE 21:39:56 84° ENE 21:45:00 10° NNW
SAR-Lupe-2 3.9 21:36:47 10° NNE 21:40:15 44° E 21:41:56 25° SSE
SL-16 R/B 2.8 21:34:51 10° NNW 21:40:22 48° NE 21:44:17 19° ESE
Lacrosse 5 2.0 21:36:33 10° WNW 21:41:39 73° NNE 21:45:31 17° ESE
Cosmos 468 Rocket 4.2 21:37:05 10° NNW 21:42:23 61° ENE 21:45:45 22° SE
Sich 1 4.2 21:38:43 10° SW 21:42:57 44° WNW 21:47:14 10° N
NOSS 2 (A) 4.1 21:47:34 10° NW 21:50:16 71° SW 21:50:43 52° SSE
Cosmos 2219 Rocket 4.3 21:46:45 10° NNW 21:50:42 19° NNE 21:54:40 10° ENE
Cosmos 1954 Rocket 4.0 21:48:02 10° SSW 21:53:19 72° ESE 21:58:39 10° NNE
Cosmos 2082 Rocket 2.1 21:47:37 10° SSW 21:53:20 82° ESE 21:59:02 10° NNE
Meteor 1-4 Rocket 4.0 21:50:50 10° NNW 21:53:58 31° W 21:56:38 13° SSW
Cosmos 2278 4.3 21:48:59 10° NW 21:54:30 50° WSW 21:58:39 17° S
Spot 2 Rocket 4.4 21:51:36 11° S 21:56:20 44° W 22:01:13 10° NNW
Cosmos 1184 Rocket 3.0 21:53:56 17° SSW 21:56:21 70° WNW 21:59:40 10° N
CARTOSAT-1 3.8 21:57:12 21° S 22:00:00 64° WSW 22:04:20 10° NNW
Terra 1.8 22:00:02 25° SSE 22:02:48 87° ENE 22:07:37 10° NNW
Cosmos 2322 Rocket 2.6 21:57:11 10° NNW 22:02:48 56° NE 22:06:13 24° ESE
Cosmos 1933 Rocket 3.5 22:01:23 23° S 22:04:08 77° E 22:08:35 10° NNE
Okean 1 3.3 22:01:04 10° NNW 22:05:07 82° W 22:07:06 29° S
Cosmos 407 Rocket 4.4 22:02:15 10° SW 22:07:26 51° WNW 22:12:37 10° NNE
Cosmos 1238 Rocket 2.2 22:06:54 31° SSW 22:08:10 71° W 22:11:07 10° N
Cosmos 1602 3.6 22:06:47 28° S 22:08:43 79° E 22:12:41 10° NNE
Cosmos 2100 Rocket 4.3 22:05:35 25° SSE 22:08:51 46° E 22:14:40 10° NNE
Cosmos 1437 Rocket 2.6 22:05:37 10° N 22:09:28 78° E 22:10:50 38° SSE
USA 234 3.8 22:06:06 22° SSE 22:10:01 46° SW 22:16:16 10° WNW
Meteor 1-20 Rocket 4.4 22:05:29 11° SSW 22:11:09 82° WNW 22:17:03 10° NNE
Cosmos 1605 Rocket 4.0 22:05:45 10° SSW 22:11:49 78° W 22:17:57 10° N
ERBS 4.0 22:09:38 10° WNW 22:12:43 34° N 22:15:48 10° ENE
Cosmos 1869 Rocket 4.1 22:13:01 32° SE 22:14:21 41° E 22:18:33 10° NNE
Cosmos 2360 Rocket 3.0 22:11:29 10° NNW 22:16:55 43° NE 22:20:19 21° ESE
SPOT 5 3.2 22:15:08 23° SSW 22:17:37 51° W 22:21:53 10° NNW
JB-3 4.5 22:15:38 10° NNE 22:19:34 55° E 22:20:44 39° SSE
Meteor 1-19 Rocket 4.2 22:16:03 10° NNW 22:21:28 73° W 22:24:35 26° S
ATLAS 3B R/B 3.8 22:21:12 21° ESE 22:21:40 21° ESE 22:26:23 10° ENE
Cosmos 1703 Rocket 3.6 22:17:57 10° NNW 22:22:19 74° W 22:24:15 32° S
Cosmos 2242 Rocket 4.1 22:18:16 10° NNW 22:22:38 56° W 22:24:58 25° SSW
Iridium 4 Rocket 3.4 22:21:45 36° SE 22:23:04 49° E 22:27:09 10° NNE
Geosat 4.1 22:20:48 30° SE 22:23:19 69° NE 22:28:21 10° NNW
Cosmos 2173 Rocket 4.1 22:21:11 28° SSE 22:24:21 56° E 22:30:20 10° NNE
Cosmos 1980 Rocket 3.4 22:20:17 10° NW 22:25:20 34° WSW 22:28:51 17° SSW
Cosmos 1500 3.5 22:25:10 43° ESE 22:25:40 46° E 22:29:18 10° NNE
SL-4 R/B 1.6 22:22:19 10° WSW 22:26:05 61° SSE 22:27:13 38° E
Cosmos 405 Rocket 2.9 22:24:29 27° SSW 22:26:22 65° WNW 22:30:05 10° N
USA 238 DEB 3.6 22:21:28 10° SSW 22:28:05 72° SE 22:35:01 10° NE
USA 238 3.6 22:21:35 10° SSW 22:28:11 72° SE 22:35:07 10° NE
Cosmos 1763 Rocket 3.6 22:23:19 10° NNW 22:28:39 72° WSW 22:31:09 32° S
ALOS 2 4.2 22:27:44 19° E 22:29:26 25° ENE 22:32:59 10° N
Meteor 1-14 Rocket 4.3 22:29:24 22° S 22:33:19 89° ESE 22:39:19 10° NNE
Cosmos 1536 4.1 22:34:39 25° E 22:34:47 25° E 22:38:03 10° NNE
Cosmos 2333 Rocket 3.6 22:32:03 10° NNW 22:37:13 32° NE 22:41:19 15° E
Cosmos 1666 3.7 22:37:32 29° E 22:37:32 29° E 22:40:46 10° NNE
Meteor 1-13 Rocket 4.2 22:35:33 10° N 22:41:07 68° ENE 22:43:23 36° SSE
Cosmos 2016 Rocket 4.3 22:39:51 32° SSE 22:42:36 53° E 22:48:47 10° NNE
Meteor 1-5 Rocket 4.4 22:40:38 33° SSE 22:43:20 63° E 22:49:13 10° NNE
Okean 1-7 3.6 22:39:26 10° NNW 22:43:39 51° W 22:45:21 31° SSW
Cosmos 2061 Rocket 4.2 22:41:23 32° SSE 22:43:59 54° E 22:50:00 10° NNE
Cosmos 1833 Rocket 4.3 22:39:14 10° WSW 22:44:21 34° NW 22:49:30 10° NNE
MOS 1-B Rocket 4.0 22:38:58 10° NNE 22:44:37 55° E 22:46:44 35° SSE
Cosmos 2221 Rocket 3.7 22:40:49 10° N 22:45:16 63° ENE 22:46:29 44° SE
Cosmos 1459 Rocket 4.0 22:42:35 30° S 22:45:58 77° E 22:52:20 10° NNE
FALCON 9 DEB 3.3 22:45:52 10° WSW 22:48:49 59° SW 22:48:49 59° SW
Okean 3 3.4 22:45:08 10° N 22:49:26 82° ENE 22:50:30 50° SSE
Cosmos 1867 3.9 22:44:14 10° SW 22:49:39 66° NW 22:55:07 10° NE
Cosmos 1733 Rocket 3.9 22:51:00 33° ESE 22:51:27 34° E 22:55:26 10° NNE
SL-27 R/B 2.4 22:53:08 64° ENE 22:53:08 64° ENE 22:56:10 10° NNE
Thor Agena Rocket 3.9 22:50:56 10° NNE 22:55:50 46° E 22:56:59 40° SE
CENTAUR R/B 2.5 22:51:50 20° SSW 22:56:15 68° SE 23:03:26 10° NE
Cosmos 1850 Rocket 4.0 22:54:34 25° SSW 22:57:43 84° WNW 23:03:01 10° NNE
Cosmos 967 Rocket 4.4 22:51:48 10° NW 22:58:14 86° SW 23:01:03 36° SE
Meteor 2-4 Rocket 4.0 22:52:49 10° NNW 22:58:28 60° W 23:00:58 32° SSW
Cosmos 44 3.3 22:55:12 10° NW 23:00:04 75° SW 23:01:33 46° SSE
Cosmos 1802 Rocket 4.0 22:58:41 32° S 23:01:50 82° E 23:08:15 10° NNE
Spot 4 3.8 23:06:33 48° SSE 23:07:56 88° WSW 23:12:48 10° NNW
Cosmos 2346 Rocket 4.4 23:02:36 10° N 23:08:43 84° W 23:11:12 38° S
Cosmos 1378 4.0 23:08:44 10° N 23:12:16 38° ENE 23:12:29 37° E
USA 267 3.7 23:09:14 10° ENE 23:15:42 64° NNW 23:22:09 10° W
Cosmos 2233 Rocket 4.3 23:14:31 37° SE 23:16:41 52° E 23:22:48 10° NNE
Cosmos 841 Rocket 3.9 23:15:34 10° NNW 23:20:37 50° WSW 23:22:05 39° SSW
Cosmos 540 Rocket 3.9 23:16:47 10° NNW 23:21:47 51° WSW 23:23:10 39° SSW
NOSS 3-2 (A) 3.9 23:16:56 10° WSW 23:22:48 65° NW 23:29:40 10° NE
Cosmos 1816 Rocket 4.5 23:17:49 10° NNW 23:24:09 80° W 23:26:36 40° S
SL-16 R/B 3.1 23:19:12 10° NW 23:24:24 37° WSW 23:26:08 30° SW
Lacrosse 5 2.5 23:19:45 10° WNW 23:24:24 36° SW 23:24:41 36° SW
Cosmos 2322 3.8 23:21:41 10° NNW 23:27:23 71° ENE 23:29:31 39° SE
Cosmos 1378 Rocket 3.7 23:23:39 10° N 23:28:06 63° ENE 23:28:49 54° ESE
NOSS 3-2 (C) 3.5 23:23:11 12° SW 23:28:37 81° NW 23:35:28 10° NE
Cosmos 1833 4.5 23:28:44 44° SE 23:29:46 49° ESE 23:35:13 10° NE
COSMOS 2487 3.8 23:32:14 29° ENE 23:32:14 29° ENE 23:34:25 10° NE
Cosmos 2219 Rocket 2.5 23:30:15 10° NNW 23:35:53 60° NE 23:38:19 33° ESE
Cosmos 2084 Rocket 3.3 23:35:30 71° SSW 23:35:55 82° SE 23:40:16 10° NE
Tsikada Rocket 4.1 23:30:58 10° NNW 23:37:21 73° W 23:39:45 40° S
Cosmos 2082 Rocket 4.2 23:33:20 10° W 23:38:06 26° NW 23:42:51 10° NNE
EO 1 Del DPAF 3.1 23:36:03 10° NNE 23:39:50 83° WNW 23:39:56 81° WSW
Terra 4.1 23:38:55 11° WSW 23:41:13 15° W 23:43:51 10° NW
Cosmos 1975 Rocket 4.2 23:37:17 10° N 23:41:24 33° ENE 23:42:25 30° E
Cosmos 2333 4.2 23:35:58 10° NNW 23:41:49 86° ENE 23:43:44 45° SSE
Cosmos 1242 Rocket 2.9 23:42:48 10° NNW 23:46:08 54° W 23:46:08 54° W
Cosmos 2322 Rocket 3.3 23:41:38 10° NW 23:46:36 31° WSW 23:48:01 28° SW
ERBS 3.8 23:46:27 10° WNW 23:49:33 36° NNE 23:51:02 23° ENE
Helios 1A 3.3 23:49:48 50° ESE 23:50:23 55° ENE 23:54:33 10° N
Cosmos 1486 Rocket 4.2 23:52:11 49° SE 23:52:56 54° ESE 23:58:00 10° NNE
Meteor 1-11 Rocket 4.1 23:51:38 34° SW 23:54:00 60° WNW 23:59:43 10° N
Cosmos 1544 4.1 23:54:38 36° ENE 23:54:38 36° ENE 23:57:36 10° NNE
